NESS

导读

NESS卫星由法国研发,于2023年10月9日北京时间8点,在法属圭亚那库鲁航天中心搭乘织女星火箭VV23任务发射升空,进入预定太阳同步轨道。作为小型技术演示卫星,它承担射频频谱监测任务,用于检测定位民用频段的射频干扰,验证频谱监测技术可行性,为后续频谱管控卫星技术发展积累在轨数据,推动卫星射频监测领域的技术进步。

基本信息
目录编号:
58020
目录名称:
NESS
国际标识:
2023-155E
轨道中心:
EARTH
卫星名称:
NESS
卫星全名:
--
卫星状态:
在轨 (已飞行1009 天)
发射日期:
2023-10-09 UTC
国别 :
法国 (FR)
星等 :
--
轨道信息
数据来源 国际轨道数据
星历时间: 2026-07-14T01:53:12+0800
13小时前
查看轨道信息
半长轴: 6850.967km
偏心率: 0.0007173
轨道倾角: 97.592°
近地点辐角 108.829°
升交点赤经 281.132°
平近点角 251.373°
近地点: 467.915km
远地点: 477.745km
周期: 94.056分钟
每日圈数: 15.309993
详细信息
使用方式:
暂无
2D轨道图
3D轨道图
轨道高度分析图
轨道倾角分析图
轨道综合分析图
查看轨道综合分析图